カタログに戻る

SPOT 2

運用中科学PO
NORAD 20436·PAYLOAD·🇫🇷 France

打ち上げ Jan 22, 1990 から Guiana Space Centre

Loading…

次のパス (今後24時間)

TLE

最新Source: Space-Track

元期: Sep 14, 2026, 10:33 UTC

1 20436U 90005A   26257.43966173  .00000780  00000-0  11292-3 0  9993
2 20436  98.7245  61.2463 0128830 166.9975 193.4606 14.74005637928475

AllMySatでSPOT 2をリアルタイム追跡

Download on the App Store